カタログに戻る

FREGAT R/B

LostHEO
NORAD 54032·ROCKET BODY·🇷🇺 Russia

打ち上げ Oct 10, 2022 から Plesetsk Cosmodrome

Loading…

次のパス (今後24時間)

TLE

古いSource: Space-Track

元期: Aug 5, 2026, 14:52 UTC

1 54032U 22130B   26217.62013049 -.00000053  00000-0  00000+0 0  9993
2 54032  64.2406 313.8212 0027805 176.9692 183.0924  2.11046372 29431

AllMySatでFREGAT R/Bをリアルタイム追跡

Download on the App Store